This demonstration page uses our WeatherBlox Daily Observations layout. Learn more.

Left ArrowRight Arrow

39.29038, -76.61219

Hourly Observations for November 27, 2021

Temp ( °F °C ) Dew Point ( °F °C ) Humidity (%) Winds ( mph kmh ) Pressure ( in mb ) Visibility ( mi km ) Precip ( " mm )
12:54 am 00:54 Mostly Cloudy 36 2.2 19 -7.2 50 50 WNW 16 26 29.91 1013 10 16 N/A
1:54 am 01:54 Mostly Cloudy 36 2.2 18 -7.8 48 48 WNW 16 26 29.93 1013 10 16 N/A
2:54 am 02:54 Mostly Cloudy 36 2.2 18 -7.8 48 48 WNW 15 24 29.94 1014 10 16 N/A
3:54 am 03:54 Mostly Cloudy 35 1.7 18 -7.8 50 50 WNW 14 22 29.94 1014 10 16 N/A
4:54 am 04:54 Mostly Cloudy 35 1.7 18 -7.8 50 50 WNW 14 22 29.96 1015 10 16 N/A
5:54 am 05:54 Mostly Cloudy 35 1.7 18 -7.8 50 50 WNW 17 28 29.99 1016 10 16 N/A
6:54 am 06:54 Mostly Cloudy 35 1.7 17 -8.3 48 48 WNW 12 19 30.00 1016 10 16 N/A
7:54 am 07:54 Mostly Cloudy 35 1.7 17 -8.3 48 48 WNW 10 17 30.02 1017 10 16 N/A
8:54 am 08:54 Mostly Cloudy 37 2.8 17 -8.3 44 44 NW 20 31 30.03 1017 10 16 N/A
9:54 am 09:54 Partly Cloudy 39 3.9 18 -7.8 43 43 WNW 18 30 30.03 1017 10 16 N/A
10:54 am 10:54 Partly Cloudy 40 4.4 18 -7.8 41 41 WNW 13 20 30.02 1017 10 16 N/A
11:54 am 11:54 Mostly Sunny 41 5 19 -7.2 41 41 W 18 30 30.01 1016 10 16 N/A
12:54 pm 12:54 Mostly Sunny 42 5.6 19 -7.2 40 40 W 12 19 29.99 1016 10 16 N/A
1:54 pm 13:54 Partly Cloudy 44 6.7 19 -7.2 37 37 W 16 26 29.98 1015 10 16 N/A
2:54 pm 14:54 Partly Cloudy 41 5 18 -7.8 39 39 WNW 14 22 29.97 1015 10 16 N/A
3:54 pm 15:54 Partly Cloudy 42 5.6 18 -7.8 38 38 WNW 8 13 29.97 1015 10 16 N/A
4:54 pm 16:54 Partly Cloudy 41 5 18 -7.8 39 39 W 10 17 29.97 1015 10 16 N/A
5:54 pm 17:54 Mostly Cloudy 41 5 19 -7.2 41 41 W 3 6 29.98 1015 10 16 N/A
6:54 pm 18:54 Mostly Cloudy 41 5 20 -6.7 43 43 N N/A 29.98 1015 10 16 N/A
7:54 pm 19:54 Cloudy 41 5 20 -6.7 43 43 SSW 3 6 29.99 1016 10 16 N/A
8:54 pm 20:54 Cloudy 41 5 21 -6.1 45 45 SSW 5 7 29.98 1015 10 16 N/A
9:54 pm 21:54 Cloudy 42 5.6 23 -5 47 47 N N/A 29.98 1015 10 16 N/A
10:54 pm 22:54 Cloudy 42 5.6 25 -3.9 51 51 NE 3 6 29.96 1014 10 16 N/A
11:54 pm 23:54 Cloudy 40 4.4 27 -2.8 60 60 E 6 9 29.94 1014 10 16 N/A

Powered by AerisWeather